sat.trackr.live / text

‹ back to catalog

STARLINK-4362

NORAD 53043 · 2022-077A

PAYLOAD ACTIVE UNKNOWN

§ Identity

Operator
Country
US
Launch date
2022-07-11
Launch site
AFWTR
Launch vehicle
Mass (kg)
RCS (m²)

Purposes: comms

External: N2YO · Heavens-Above · Gunter

§ Orbital elements

Epoch: 2026-05-25T01:43:11.584704Z

Period
95.64 min
Inclination
97.4467°
Eccentricity
0.0001351
Mean motion
15.05658514 rev/d
Perigee alt
548.5 km
Apogee alt
550.4 km
Semi-major
6,927.6 km
B*
-1.6004e-4
RAAN
324.9664°
Arg perigee
103.4910°
Mean anomaly
256.6468°
Rev number
21,240

§ Raw data

STARLINK-43621 53043U 22077A   26145.07166186 -.00002367  00000+0 -16004-3 0  99992 53043  97.4467 324.9664 0001351 103.4910 256.6468 15.05658514212402

JSON: /api/v1/satellites/53043 · /tle

For live sub-satellite position, see the globe view (requires WebGL).

§ Visibility from observer

Set your observer location to see the next 7 days of passes ≥ 10°. The values pass through the URL so the page stays shareable.

No JS? Fill the form by hand. The geolocation button needs JavaScript.

§ Radio — SatNOGS DB

ModeDescriptionDownlinkUplink
CW Ku-band 11325 MHz beacon 11.325 GHz
CW Ku-band 11575 MHz beacon 11.575 GHz
CW Ku-band 11950 MHz beacon 11.950 GHz
CW Ku-band 12450 MHz beacon 12.450 GHz

4 transmitters · refreshed weekly from db.satnogs.org